Погода в Василевке

Украина / Днепропетровская область     48°15′16″N   34°59′41″E
темп.,
°C
ветер,
м/с
пор.,
м/с
влажн.,
%
обл.,
%
осадки,
мм/ч
давл.,
гПа
погр.,
м
18 апреля, вс
вс1800:00+8юв1165100 0.0 102010
03:00+7юв1175100 0.0 101918
06:00+6ю11865 0.0 101911
09:00+10ююз22666 0.0 1018450
12:00+14ююз444697 0.1 10182043
15:00+15юз344197 0.1 10162066
18:00+14зюз2350100 0.0 1016325
21:00+11з226182 0.0 101647
19 апреля, пн
пн1900:00+9с226897 0.0 101632
03:00+9сз1168100 0.0 101615
06:00+8с348099 0.0 101682
09:00+10с337099 0.0 1016413
12:00+14ссз225398 0.1 10151381
15:00+14ссз214999 0.3 10141469
18:00+14ссв225592 0.1 1014340
21:00+11в226286 0.1 101425
20 апреля, вт
вт2000:00+11всв2465100 0.0 101278
03:00+10св4870100 0.0 1010230
06:00+9св51075100 0.1 1007388
09:00+8св71293100 5.1 1004481
12:00+9ссв61097100 9.1 1000584
15:00+9ссз4697100 13.9 998344
18:00+8ссз101492100 2.4 998833
21:00+8зсз81291100 3.2 10031110
21 апреля, ср
ср2100:00+8з81390100 0.2 1006571
03:00+8з61190100 0.2 1009554
06:00+7зюз599110 0.2 1012398
09:00+9зюз69705 0.2 1014913
12:00+9з785999 0.0 10151307
15:00+13з674874 0.0 10161890
18:00+13з475141 0.0 10171707
21:00+9ююз336935 0.0 101826
22 апреля, чт
чт2200:00+8ююз377435 0.0 1019134
03:00+7ююз36935 0.0 1019116
06:00+6ю37945 0.0 1020139
09:00+11ююз577352 0.0 1021603
12:00+15ююз565724 0.0 10201428
15:00+16ююз665399 1.7 10201572
18:00+15ююз46605 1.2 1019670
21:00+11зюз2281100 2.1 102137